User: anonymous   Login
Location: Unspecified
(0.0000°N, 0.0000°E)
Time: 18:52:15
(UTC+00:00)
Language:

Kosmos-2195 - Orbit

View from above orbital plane
View from above orbital plane
View from above satellite
View from above satellite

Ground track
Ground track

The orbit data is extracted from the following two-line orbital elements,

1 22006U 92036A   17145.75944372 +.00000061 +00000-0 +47905-4 0  9995
2 22006 082.9339 352.6165 0037863 143.2018 266.7421 13.74912761249341
Epoch (UTC): 25 May 2017 18:13:35
Eccentricity: 0.0037863
inclination: 82.9339°
perigee height: 954 km
apogee height: 1010 km
right ascension of ascending node: 352.6165°
argument of perigee: 143.2018°
revolutions per day: 13.74912761
mean anomaly at epoch: 266.7421°
orbit number at epoch: 24934

The dashed part of the orbit path shows where the satellite is in the earth's shadow,  

DLR